Weather History for Chamberlain, SD

Change the Weather History Date:

Friday, November 30, 2012

  Actual Average Record
Temperature  
Mean Temperature 30 °F -  
Max Temperature 42 °F 36 °F 52 °F (1998)
Min Temperature 18 °F 19 °F 1 °F (2006)
Degree Days  
Heating Degree Days 35    
Moisture  
Dew Point 23 °F    
Average Humidity 75    
Maximum Humidity 92    
Minimum Humidity 53    
Precipitation  
Precipitation 0.00 in - - ()
Sea Level Pressure  
Sea Level Pressure 30.01 in    
Wind  
Wind Speed 9 mph (SE)    
Max Wind Speed 18 mph    
Max Gust Speed 24 mph    
Averages and records for this station are not official NWS values.
T = Trace of Precipitation, MM = Missing Value Source: NWS Daily Summary

Daily Weather History Graph

Daily Weather History Graph

Search for Another Location

Airport:

Trip Planner

Search our weather history database for the weather conditions in past years. The results will help you decide how hot, cold, wet, or windy it might be!

Date:

Astronomy

Nov. 30, 2012 Rise Set
Actual Time 7:50 AM CST 5:01 PM CST
Civil Twilight 7:18 AM CST 5:33 PM CST
Nautical Twilight 6:42 AM CST 6:09 PM CST
Astronomical Twilight 6:08 AM CST 6:44 PM CST
Moon 6:58 PM CST (11/30) 9:23 AM CST (11/30)
Length of Visible Light 10h 15m
Length of Day
9h 10m
Waning Gibbous, 96% of the Moon is Illuminated
Nov 30
Waning Gibbous
Dec 6
Last Quarter
Dec 13
New
Dec 19
First Quarter
Dec 28
Full

Hourly Weather History & Observations

Time (CST) Temp. Windchill Dew Point Humidity Pressure Visibility Wind Dir Wind Speed Gust Speed Precip Events Conditions
12:52 AM 21.0 °F 13.4 °F 18.0 °F 88% 30.12 in - West 5.8 mph - N/A   Unknown
1:52 AM 18.0 °F 11.1 °F 15.1 °F 88% 30.11 in - NW 4.6 mph - N/A   Unknown
2:52 AM 21.9 °F 14.5 °F 19.0 °F 89% 30.14 in - NW 5.8 mph - N/A   Unknown
3:52 AM 21.9 °F 14.5 °F 19.9 °F 92% 30.14 in - WNW 5.8 mph - N/A   Unknown
4:52 AM 23.0 °F 15.8 °F 19.9 °F 88% 30.13 in - WNW 5.8 mph - N/A   Unknown
5:52 AM 21.9 °F 14.5 °F 19.9 °F 92% 30.10 in - ENE 5.8 mph - N/A   Unknown
6:52 AM 21.0 °F 13.4 °F 18.0 °F 88% 30.11 in - ESE 5.8 mph - N/A   Unknown
7:52 AM 21.0 °F 16.2 °F 18.0 °F 88% 30.13 in - South 3.5 mph - N/A   Unknown
8:52 AM 21.0 °F 13.4 °F 18.0 °F 88% 30.13 in - ESE 5.8 mph - N/A   Unknown
9:52 AM 23.0 °F 15.8 °F 19.0 °F 85% 30.14 in - South 5.8 mph - N/A   Unknown
10:52 AM 25.0 °F 16.3 °F 21.9 °F 88% 30.13 in - SE 8.1 mph - N/A   Unknown
11:52 AM 30.0 °F 20.5 °F 26.1 °F 85% 30.08 in - ESE 11.5 mph - N/A   Unknown
12:52 PM 33.1 °F 22.6 °F 25.0 °F 72% 30.01 in - SE 16.1 mph - N/A   Unknown
1:52 PM 39.9 °F 31.1 °F 26.1 °F 58% 29.98 in - SE 17.3 mph - N/A   Unknown
2:52 PM 42.1 °F 33.9 °F 26.1 °F 53% 29.94 in - SE 17.3 mph - N/A   Unknown
3:52 PM 42.1 °F 33.6 °F 26.1 °F 53% 29.93 in - SE 18.4 mph - N/A   Unknown
4:52 PM 39.9 °F 31.1 °F 26.1 °F 58% 29.93 in - SE 17.3 mph - N/A   Unknown
5:52 PM 37.0 °F 27.7 °F 25.0 °F 62% 29.91 in - SE 16.1 mph - N/A   Unknown
6:52 PM 36.0 °F 26.3 °F 25.0 °F 64% 29.88 in - SE 16.1 mph - N/A   Unknown
7:52 PM 39.0 °F 30.6 °F 26.1 °F 60% 29.86 in - SSE 15.0 mph 24.2 mph N/A   Unknown
8:52 PM 37.9 °F 30.5 °F 26.1 °F 62% 29.85 in - SE 11.5 mph - N/A   Unknown
9:52 PM 37.0 °F 29.8 °F 27.0 °F 67% 29.84 in - SE 10.4 mph - N/A   Unknown
10:52 PM 37.0 °F 28.9 °F 27.0 °F 67% 29.82 in - SE 12.7 mph - N/A   Unknown
11:52 PM 39.0 °F 34.0 °F 28.0 °F 65% 29.79 in - SE 6.9 mph - N/A   Unknown